User: anonymous   Login
Location: Unspecified
(0.0000°N, 0.0000°E)
Time: 06:00:47
(UTC+01:00)
Language:

Cosmos 2251 - Orbit

View from above orbital plane
View from above orbital plane
View from above satellite
View from above satellite

Ground track
Ground track

The orbit data is extracted from the following two-line orbital elements,

1 22675U 93036A   17023.51655658 -.00000011  00000-0  57878-5 0  9990
2 22675  74.0400 120.1315 0026254 274.1918  85.6232 14.32491467233312
Epoch (UTC): 23 January 2017 12:23:50
Eccentricity: 0.0026254
inclination: 74.0400°
perigee height: 764 km
apogee height: 802 km
right ascension of ascending node: 120.1315°
argument of perigee: 274.1918°
revolutions per day: 14.32491467
mean anomaly at epoch: 85.6232°
orbit number at epoch: 23331

The dashed part of the orbit path shows where the satellite is in the earth's shadow,  

DLR